[[{"header":{"parameterUnit":"m.s-1","parameterCategory":1,"la1":30.2991,"la2":30.254,"lo1":-89.0895,"lo2":-89.0444,"dy":0.0017,"dx":0.0017,"nx":28,"ny":28,"refTime":"2024-04-30T21:00:00:Z","depth":0,"parameterNumber":2,"parameterNumberName":"U-component_of_WINDS"},"data":[0,0,0,0,0,0,0,0,0,0,0,0,0,0,0,0,0,0,0,0,0,0,0,0,0,0,0,0,0,0,0,0,0,0,0,0,0,0,0,0,0,0,0,0,0,0,0,0,0,0,0,0,0,0,0,0,0,0,0.6368,0.6369,0,0.6406,0.6407,0.6407,0.6399,0.6398,0.6397,0.6396,0.6438,0.644,0.6441,0,0,0,0,0,0,0,0,0,0,0,0,0,0.629,0.6291,0.6368,0.6369,0.6369,0.6406,0.6407,0.6407,0.6399,0.6398,0.6397,0.6396,0.6437,0.6439,0.6442,0,0,0,0,0,0,0,0,0,0,0,0,0,0.6326,0.6292,0.6368,0.6369,0.637,0.6406,0.6407,0.6408,0.6399,0.6398,0.6397,0.6396,0.6437,0.6439,0.6442,0.648,0,0,0.645,0.6451,0,0,0,0,0,0,0,0,0.6324,0.6328,0.6369,0.6369,0.637,0.6397,0.6394,0.6432,0.6399,0.6388,0.6396,0.6395,0.6425,0.6429,0.6438,0.6482,0.6484,0.645,0.6452,0.6453,0.6454,0,0,0,0,0,0,0,0.6321,0.6327,0.6383,0.6369,0.637,0.6369,0.6372,0.6402,0.6412,0.6389,0.6388,0.6393,0.6425,0.6436,0.6439,0.6485,0.645,0.6453,0.6454,0.6455,0.6562,0.6563,0,0,0,0,0,0,0.6318,0.6325,0.6382,0.6385,0.6343,0.6371,0.6375,0.6389,0.6412,0.6414,0.6394,0.6392,0.6432,0.6436,0.6441,0.6487,0.6453,0.6456,0.6457,0.6561,0.6562,0.6563,0,0,0,0,0,0,0.6316,0.6323,0.6381,0.6355,0.6362,0.6373,0.6389,0.6391,0.6401,0.6416,0.6418,0.6402,0.6431,0.6437,0.647,0.6488,0.6457,0.6459,0.6559,0.6561,0.6563,0.6579,0,0,0,0,0,0,0.6314,0.6322,0.6337,0.6355,0.6363,0.6409,0.639,0.6392,0.6405,0.6404,0.6424,0.6427,0.6431,0.6466,0.6473,0.6491,0.6461,0.6558,0.656,0.6562,0.6577,0.6581,0.6585,0,0,0,0,0,0.6311,0.634,0.6337,0.6344,0.6381,0.641,0.6415,0.6418,0.6407,0.6421,0.6431,0.6426,0.6485,0.647,0.6477,0.6496,0.6556,0.6559,0.6562,0.6575,0.6581,0.6585,0,0,0,0,0,0,0.6324,0.6343,0.634,0.6375,0.6391,0.6408,0.6427,0.6424,0.6443,0.6441,0.6446,0.645,0.6484,0.6494,0.6476,0.6535,0.6519,0.6524,0.6527,0.6532,0.6536,0.6533,0.6464,0,0,0,0,0,0.6331,0.6353,0.6368,0.6398,0.6406,0.6415,0.6428,0.6429,0.6446,0.6453,0.6465,0.6482,0.6504,0.6519,0.654,0.6579,0.6583,0.6596,0.66,0.6603,0.6606,0.6627,0.6633,0.6572,0.6572,0.6572,0,0,0.6346,0.6359,0.6372,0.6401,0.6413,0.6436,0.6421,0.6445,0.6462,0.6457,0.6488,0.6498,0.6517,0.6553,0.657,0.6562,0.6624,0.6606,0.6609,0.6611,0.6631,0.6636,0.6641,0.6574,0.6574,0.6574,0,0,0.6384,0.6396,0.6422,0.6435,0.6453,0.6459,0.6466,0.6484,0.6489,0.6521,0.6518,0.6538,0.6577,0.6591,0.6603,0.6646,0.6643,0.6654,0.6674,0.6694,0.6699,0.6703,0.6718,0.6723,0.6657,0.6657,0.6657,0,0.64,0.6433,0.6436,0.6461,0.6474,0.647,0.6496,0.6509,0.6534,0.6543,0.6534,0.6582,0.6595,0.6634,0.6645,0.6655,0.6662,0.6651,0.6698,0.6702,0.6706,0.672,0.6726,0.6658,0.6658,0.6658,0.6658,0,0.6452,0.6475,0.6494,0.6517,0.6533,0.6558,0.6566,0.6581,0.6581,0.6588,0.6621,0.6636,0.666,0.667,0.6671,0.6709,0.6704,0.6697,0.6681,0.6713,0.6726,0.6732,0.666,0.666,0.6659,0.6659,0,0,0.6499,0.6524,0.653,0.6541,0.6561,0.6579,0.6605,0.6628,0.6641,0.6659,0.668,0.6713,0.6707,0.672,0.6723,0.6741,0.6774,0.6731,0.6732,0.6738,0.6816,0.6821,0.6827,0.6772,0.6773,0.6774,0.6814,0,0.6538,0.6582,0.6586,0.6626,0.6647,0.6644,0.6667,0.6682,0.6689,0.6709,0.6718,0.674,0.673,0.6738,0.6756,0.6766,0.6789,0.6763,0.6792,0.6793,0.6786,0.6834,0.6839,0.6877,0.682,0.6821,0.6821,0,0.6589,0.6608,0.665,0.6667,0.6676,0.6696,0.6718,0.6737,0.6754,0.6758,0.6774,0.6774,0.6801,0.6785,0.6822,0.6804,0.6816,0.6823,0.6825,0.6827,0.6808,0.6837,0.6889,0.6894,0.683,0.6829,0.6829,0,0.6618,0.6654,0.6683,0.6693,0.6714,0.6728,0.6738,0.6754,0.6768,0.6787,0.6796,0.6818,0.683,0.6848,0.6854,0.6842,0.6891,0.6876,0.6895,0.6895,0.6905,0.6904,0.6959,0.6914,0.6914,0.6914,0.6914,0,0.6661,0.6687,0.6697,0.6715,0.6744,0.6748,0.6777,0.6786,0.68,0.682,0.682,0.6839,0.6846,0.6867,0.6872,0.6902,0.6908,0.6912,0.6913,0.6912,0.6911,0.6919,0.6916,0.6916,0.6915,0.6915,0.6915,0,0.6698,0.6705,0.6737,0.6755,0.676,0.678,0.6795,0.6813,0.6821,0.6846,0.6852,0.6864,0.6888,0.6896,0.6926,0.693,0.6964,0.6963,0.6958,0.6958,0.6976,0.6974,0.7038,0.7046,0.6997,0.6997,0.6998,0,0.6724,0.6744,0.6763,0.6776,0.6786,0.6808,0.6821,0.6827,0.6841,0.6863,0.6878,0.6902,0.6921,0.696,0.6971,0.6994,0.6993,0.7014,0.6996,0.6994,0.6992,0.6991,0.6992,0.7017,0.7017,0.7018,0.7018,0,0.677,0.6773,0.6792,0.6813,0.6829,0.6846,0.6863,0.6874,0.6882,0.6898,0.6922,0.6937,0.6967,0.6991,0.7014,0.7024,0.7022,0.7023,0.7029,0.7027,0.7023,0.7024,0.6965,0.7022,0.7021,0.7021,0.7021,0.7021,0.6801,0.6818,0.6835,0.6857,0.687,0.6885,0.6902,0.6912,0.6932,0.6956,0.6958,0.6984,0.7002,0.7032,0.7044,0.7065,0.7059,0.7067,0.7069,0.7071,0.7072,0.702,0.7069,0.7069,0.7069,0.7069,0.7069,0,0.6846,0.6857,0.6877,0.6899,0.6917,0.6913,0.6932,0.6946,0.6969,0.6985,0.7004,0.7032,0.7055,0.7068,0.7091,0.7105,0.7105,0.7111,0.7109,0.7112,0.7076,0.7069,0.7111,0.7111,0.7111,0.7111,0.7111,0.7111,0.6871,0.69,0.6905,0.694,0.6951,0.6975,0.6986,0.7,0.7013,0.7044,0.7063,0.7071,0.7086,0.711,0.7131,0.7135,0.7143,0.7149,0.7152,0.7119,0.7114,0.711,0.7103,0.7151,0.7152,0.7186,0.7186,0.7186]},{"header":{"parameterUnit":"m.s-1","parameterCategory":1,"la1":30.2991,"la2":30.254,"lo1":-89.0895,"lo2":-89.0444,"dy":0.0017,"dx":0.0017,"nx":28,"ny":28,"refTime":"2024-04-30T21:00:00:Z","depth":0,"parameterNumber":3,"parameterNumberName":"V-component_of_WINDS"},"data":[0,0,0,0,0,0,0,0,0,0,0,0,0,0,0,0,0,0,0,0,0,0,0,0,0,0,0,0,0,0,0,0,0,0,0,0,0,0,0,0,0,0,0,0,0,0,0,0,0,0,0,0,0,0,0,0,0,0,2.1047,2.1047,0,2.1051,2.1051,2.1051,2.1017,2.1016,2.1015,2.1014,2.1016,2.1017,2.1018,0,0,0,0,0,0,0,0,0,0,0,0,0,2.1004,2.1005,2.1047,2.1047,2.1047,2.1051,2.1051,2.1051,2.1017,2.1016,2.1015,2.1014,2.1016,2.1017,2.1018,0,0,0,0,0,0,0,0,0,0,0,0,0,2.1017,2.1005,2.1047,2.103,2.1029,2.1051,2.1051,2.1051,2.1017,2.1016,2.1015,2.1013,2.1016,2.1017,2.1018,2.1055,0,0,2.1023,2.1023,0,0,0,0,0,0,0,0,2.1016,2.1018,2.1033,2.1032,2.103,2.1032,2.1037,2.1053,2.1018,2.1022,2.1014,2.1012,2.1022,2.1023,2.1027,2.1056,2.1056,2.1023,2.1024,2.1024,2.1025,0,0,0,0,0,0,0,2.1015,2.1018,2.1048,2.1033,2.1031,2.1021,2.1021,2.104,2.103,2.1021,2.1019,2.102,2.1021,2.1026,2.1027,2.1056,2.1023,2.1024,2.1025,2.1025,2.111,2.1111,0,0,0,0,0,0,2.1017,2.1018,2.1048,2.1048,2.102,2.1023,2.1023,2.1033,2.103,2.1028,2.1021,2.1018,2.1024,2.1025,2.1027,2.1067,2.1024,2.1025,2.1026,2.1108,2.111,2.1111,0,0,0,0,0,0,2.1016,2.102,2.1048,2.1032,2.1035,2.1025,2.1036,2.1034,2.1038,2.103,2.1027,2.1028,2.1023,2.1025,2.1048,2.1066,2.1026,2.1027,2.1107,2.1109,2.1111,2.1149,0,0,0,0,0,0,2.1015,2.102,2.1036,2.1033,2.1036,2.1071,2.1037,2.1035,2.1041,2.1037,2.1035,2.1033,2.1022,2.1046,2.1049,2.1068,2.1028,2.1105,2.1108,2.111,2.1146,2.1152,2.1158,0,0,0,0,0,2.1014,2.1047,2.1037,2.1041,2.1055,2.1072,2.1073,2.106,2.1043,2.1057,2.1051,2.1033,2.1064,2.1048,2.1052,2.1071,2.1104,2.1107,2.111,2.1144,2.1151,2.1158,0,0,0,0,0,0,2.1052,2.1046,2.1035,2.1068,2.1071,2.1066,2.1084,2.1069,2.1077,2.1073,2.1055,2.1055,2.108,2.1078,2.1061,2.1104,2.108,2.1084,2.1105,2.1112,2.1118,2.1117,2.103,0,0,0,0,0,2.1065,2.108,2.1073,2.1103,2.1105,2.1094,2.1101,2.109,2.1092,2.1093,2.1088,2.1089,2.1099,2.1106,2.1114,2.1146,2.1143,2.1161,2.1166,2.1171,2.1174,2.1187,2.1193,2.1122,2.1122,2.1122,0,0,2.109,2.1089,2.11,2.1111,2.1111,2.1125,2.1095,2.1112,2.1121,2.1095,2.1115,2.1112,2.1112,2.1138,2.115,2.1137,2.1193,2.1175,2.1179,2.1179,2.1191,2.1197,2.1203,2.1124,2.1124,2.1123,0,0,2.1144,2.1146,2.1169,2.1169,2.117,2.1162,2.1168,2.1165,2.1161,2.1182,2.1161,2.1171,2.1189,2.1188,2.119,2.1239,2.1222,2.1242,2.1272,2.1284,2.129,2.1295,2.1309,2.1315,2.1246,2.1246,2.1246,0,2.1175,2.1197,2.1182,2.1199,2.1203,2.118,2.1201,2.1202,2.1206,2.1208,2.1195,2.1213,2.1212,2.1236,2.1248,2.1251,2.1254,2.1242,2.1291,2.1295,2.13,2.1313,2.1319,2.1248,2.1248,2.1248,2.1248,0,2.1233,2.1248,2.1266,2.127,2.1276,2.1295,2.1282,2.1289,2.1277,2.127,2.1289,2.1286,2.1292,2.1297,2.1286,2.1318,2.131,2.1294,2.1269,2.1309,2.1321,2.1326,2.1251,2.1251,2.125,2.1249,0,0,2.1312,2.1305,2.1312,2.1311,2.1309,2.1319,2.1336,2.1342,2.1347,2.1349,2.1361,2.1375,2.1358,2.1361,2.1349,2.1361,2.1395,2.1342,2.1342,2.135,2.1426,2.1437,2.1443,2.1384,2.1385,2.1386,2.1425,0,2.1362,2.1391,2.1377,2.1407,2.1418,2.1394,2.1408,2.1407,2.14,2.1406,2.1398,2.1407,2.1387,2.1387,2.1398,2.1389,2.141,2.1386,2.1392,2.1393,2.1391,2.145,2.1463,2.15,2.143,2.1431,2.1432,0,2.1424,2.1428,2.1459,2.1451,2.1455,2.1468,2.147,2.1478,2.1475,2.1468,2.1469,2.1454,2.1467,2.1443,2.1459,2.1443,2.1444,2.144,2.1441,2.144,2.1414,2.1448,2.1512,2.1517,2.144,2.1439,2.1438,0,2.1475,2.1488,2.1507,2.1508,2.15,2.1509,2.1506,2.1501,2.1504,2.1505,2.1506,2.1509,2.151,2.1512,2.1496,2.1481,2.1513,2.1489,2.1506,2.1506,2.1513,2.1512,2.1575,2.1517,2.1517,2.1517,2.1517,0,2.1531,2.155,2.1529,2.1541,2.156,2.1543,2.1562,2.1556,2.1551,2.1559,2.1539,2.1547,2.1527,2.1532,2.152,2.1533,2.1534,2.1528,2.1524,2.1528,2.1529,2.1528,2.1524,2.1518,2.1518,2.1518,2.1518,0,2.159,2.1578,2.1596,2.1586,2.1584,2.1599,2.1589,2.1598,2.1589,2.1599,2.16,2.1585,2.1589,2.1574,2.1577,2.1568,2.1587,2.158,2.1588,2.1585,2.1602,2.16,2.1665,2.1671,2.1611,2.1612,2.1613,0,2.1626,2.164,2.163,2.1634,2.1632,2.164,2.1642,2.1624,2.1627,2.1622,2.1631,2.1634,2.1635,2.1642,2.163,2.1631,2.1622,2.1645,2.1622,2.1625,2.1619,2.1618,2.1618,2.165,2.165,2.1651,2.1651,0,2.1689,2.1681,2.1686,2.1687,2.169,2.1691,2.1689,2.1693,2.1674,2.1678,2.1682,2.1683,2.1684,2.1685,2.1683,2.1678,2.166,2.1659,2.1662,2.1666,2.1669,2.1665,2.1598,2.1657,2.1657,2.1656,2.1656,2.1656,2.1736,2.1746,2.174,2.1744,2.1741,2.1739,2.1746,2.1737,2.174,2.174,2.1729,2.1734,2.1727,2.1722,2.1718,2.172,2.1709,2.1715,2.1716,2.1717,2.1719,2.167,2.172,2.172,2.172,2.1719,2.1719,0,2.1796,2.179,2.1795,2.1793,2.1795,2.1779,2.1776,2.1779,2.1784,2.1779,2.178,2.1782,2.1783,2.1771,2.1769,2.1773,2.1765,2.1773,2.1772,2.177,2.173,2.1726,2.178,2.178,2.178,2.178,2.1779,2.1779,2.1827,2.1842,2.1832,2.1844,2.1837,2.1843,2.1842,2.1839,2.1834,2.1838,2.1839,2.1831,2.1821,2.1818,2.1817,2.1813,2.1813,2.1823,2.1816,2.1779,2.1773,2.1768,2.1764,2.1824,2.1824,2.1855,2.1855,2.1856]}]]